Location: Bluff Heights
(33.7692°N, 118.1592°W)
Time: 08:59:19
(UTC+00:00)

XW-2B - Pass Details

Date: 26 September 2021
Orbit: 503 x 524 km, 97.5° (Epoch: 22 October)

Event Time Altitude Azimuth Distance (km) Brightness Sun altitude
Rises 13:03:43 0° 29° (NNE) 2,621 ? -9.2°
Reaches altitude 10° 13:06:15 10° 47° (NE) 1,726 ? -8.6°
Maximum altitude 13:09:02 20° 95° (E) 1,216 ? -8.1°
Drops below altitude 10° 13:11:47 10° 144° (SE) 1,710 ? -7.5°
Sets 13:14:16 0° 162° (SSE) 2,587 ? -7.0°
